Time,TemperatureF,DewpointF,PressureIn,WindDirection,WindDirectionDegrees,WindSpeedMPH,WindSpeedGustMPH,Humidity,HourlyPrecipIn,Conditions,Clouds,dailyrainin,SoftwareType,DateUTC
2013-03-06 00:01:00,52.0,-99.9,-100.00,WNW,287,11.0,12.0,-999,-99.99,,,-99.99,,2013-03-06 08:01:00,
2013-03-06 00:11:00,52.0,-99.9,-100.00,WNW,287,11.0,12.0,-999,-99.99,,,-99.99,,2013-03-06 08:11:00,
2013-03-06 00:52:00,52.0,-99.9,-100.00,WNW,291,6.0,15.0,-999,-99.99,,,-99.99,,2013-03-06 08:52:00,
2013-03-06 01:02:00,52.0,-99.9,-100.00,West,275,9.0,15.0,-999,-99.99,,,-99.99,,2013-03-06 09:02:00,
2013-03-06 01:12:00,52.0,-99.9,-100.00,West,275,9.0,15.0,-999,-99.99,,,-99.99,,2013-03-06 09:12:00,
2013-03-06 01:22:00,52.0,-99.9,-100.00,West,275,9.0,15.0,-999,-99.99,,,-99.99,,2013-03-06 09:22:00,
2013-03-06 01:32:00,52.0,-99.9,-100.00,WNW,284,12.0,16.0,-999,-99.99,,,-99.99,,2013-03-06 09:32:00,
2013-03-06 01:42:00,52.0,-99.9,-100.00,WNW,284,12.0,16.0,-999,-99.99,,,-99.99,,2013-03-06 09:42:00,
2013-03-06 03:10:00,47.0,-99.9,-100.00,West,272,9.0,17.0,-999,-99.99,,,-99.99,,2013-03-06 11:10:00,
2013-03-06 03:53:00,47.0,-99.9,-100.00,West,272,9.0,17.0,-999,-99.99,,,-99.99,,2013-03-06 11:53:00,
2013-03-06 04:02:00,47.0,-99.9,-100.00,West,272,9.0,17.0,-999,-99.99,,,-99.99,,2013-03-06 12:02:00,
2013-03-06 05:32:00,50.0,-99.9,-100.00,NW,308,10.0,13.0,-999,-99.99,,,-99.99,,2013-03-06 13:32:00,
2013-03-06 05:42:00,50.0,-99.9,-100.00,NW,308,10.0,13.0,-999,-99.99,,,-99.99,,2013-03-06 13:42:00,
2013-03-06 05:52:00,49.0,-99.9,-100.00,West,276,11.0,16.0,-999,-99.99,,,-99.99,,2013-03-06 13:52:00,
2013-03-06 06:02:00,49.0,-99.9,-100.00,West,276,11.0,16.0,-999,-99.99,,,-99.99,,2013-03-06 14:02:00,
2013-03-06 06:12:00,49.0,-99.9,-100.00,West,276,11.0,16.0,-999,-99.99,,,-99.99,,2013-03-06 14:12:00,
2013-03-06 07:20:00,50.0,-99.9,-100.00,West,270,9.0,15.0,-999,-99.99,,,-99.99,,2013-03-06 15:20:00,
2013-03-06 07:52:00,50.0,-99.9,-100.00,WNW,303,6.0,12.0,-999,-99.99,,,-99.99,,2013-03-06 15:52:00,
2013-03-06 08:02:00,50.0,-99.9,-100.00,West,270,9.0,15.0,-999,-99.99,,,-99.99,,2013-03-06 16:02:00,
2013-03-06 08:12:00,50.0,-99.9,-100.00,West,270,9.0,15.0,-999,-99.99,,,-99.99,,2013-03-06 16:12:00,
2013-03-06 09:30:00,54.0,-99.9,-100.00,WNW,285,8.0,18.0,-999,-99.99,,,-99.99,,2013-03-06 17:30:00,
2013-03-06 09:53:00,53.0,-99.9,-100.00,WNW,285,15.0,17.0,-999,-99.99,,,-99.99,,2013-03-06 17:53:00,
2013-03-06 10:02:00,54.0,-99.9,-100.00,WNW,285,8.0,18.0,-999,-99.99,,,-99.99,,2013-03-06 18:02:00,
2013-03-06 10:29:00,54.0,-99.9,-100.00,WNW,285,8.0,18.0,-999,-99.99,,,-99.99,,2013-03-06 18:29:00,
2013-03-06 12:50:00,62.0,-99.9,-100.00,West,263,20.0,20.0,-999,-99.99,,,-99.99,,2013-03-06 20:50:00,
2013-03-06 13:23:00,57.0,-99.9,-100.00,West,265,19.0,19.0,-999,-99.99,,,-99.99,,2013-03-06 21:23:00,
2013-03-06 13:33:00,62.0,-99.9,-100.00,West,263,20.0,20.0,-999,-99.99,,,-99.99,,2013-03-06 21:33:00,
2013-03-06 13:43:00,62.0,-99.9,-100.00,West,263,20.0,20.0,-999,-99.99,,,-99.99,,2013-03-06 21:43:00,
2013-03-06 15:20:00,65.0,-99.9,-100.00,West,263,4.0,20.0,-999,-99.99,,,-99.99,,2013-03-06 23:20:00,
2013-03-06 15:22:00,64.0,-99.9,-100.00,West,269,9.0,12.0,-999,-99.99,,,-99.99,,2013-03-06 23:22:00,
2013-03-06 15:32:00,64.0,-99.9,-100.00,West,269,9.0,12.0,-999,-99.99,,,-99.99,,2013-03-06 23:32:00,
2013-03-06 15:42:00,64.0,-99.9,-100.00,West,269,9.0,12.0,-999,-99.99,,,-99.99,,2013-03-06 23:42:00,
2013-03-06 16:02:00,65.0,-99.9,-100.00,West,263,4.0,20.0,-999,-99.99,,,-99.99,,2013-03-07 00:02:00,
2013-03-06 16:11:00,65.0,-99.9,-100.00,West,263,4.0,20.0,-999,-99.99,,,-99.99,,2013-03-07 00:11:00,
2013-03-06 16:52:00,63.0,-99.9,-100.00,WNW,282,10.0,16.0,-999,-99.99,,,-99.99,,2013-03-07 00:52:00,
2013-03-06 17:02:00,63.0,-99.9,-100.00,WNW,282,10.0,16.0,-999,-99.99,,,-99.99,,2013-03-07 01:02:00,
2013-03-06 19:02:00,58.0,-99.9,-100.00,WNW,295,6.0,8.0,-999,-99.99,,,-99.99,,2013-03-07 03:02:00,
2013-03-06 19:12:00,58.0,-99.9,-100.00,WNW,295,6.0,8.0,-999,-99.99,,,-99.99,,2013-03-07 03:12:00,
2013-03-06 19:22:00,58.0,-99.9,-100.00,WNW,295,6.0,8.0,-999,-99.99,,,-99.99,,2013-03-07 03:22:00,
2013-03-06 19:30:00,56.0,-99.9,-100.00,WNW,284,7.0,13.0,-999,-99.99,,,-99.99,,2013-03-07 03:30:00,
2013-03-06 19:32:00,58.0,-99.9,-100.00,West,269,3.0,12.0,-999,-99.99,,,-99.99,,2013-03-07 03:32:00,
2013-03-06 19:42:00,58.0,-99.9,-100.00,West,269,3.0,12.0,-999,-99.99,,,-99.99,,2013-03-07 03:42:00,
2013-03-06 19:52:00,58.0,-99.9,-100.00,West,269,3.0,12.0,-999,-99.99,,,-99.99,,2013-03-07 03:52:00,
2013-03-06 20:00:00,54.0,-99.9,-100.00,SW,231,3.0,12.0,-999,-99.99,,,-99.99,,2013-03-07 04:00:00,
2013-03-06 20:22:00,56.0,-99.9,-100.00,WNW,284,7.0,13.0,-999,-99.99,,,-99.99,,2013-03-07 04:22:00,
2013-03-06 20:52:00,54.0,-99.9,-100.00,SW,231,3.0,12.0,-999,-99.99,,,-99.99,,2013-03-07 04:52:00,
2013-03-06 22:32:00,52.0,-99.9,-100.00,West,262,7.0,14.0,-999,-99.99,,,-99.99,,2013-03-07 06:32:00,
2013-03-06 22:42:00,52.0,-99.9,-100.00,West,262,7.0,14.0,-999,-99.99,,,-99.99,,2013-03-07 06:42:00,